Miscellaneous Local Product
Issued by NWS North Platte, NE

Home | Current Version | Previous Version | Text Only | Print | Product List | Glossary On
Versions: 1 2 3 4 5 6 7 8 9 10 11 12 13 14 15 16 17 18 19 20 21 22 23 24 25 26 27 28 29 30 31 32 33 34 35 36 37 38 39 40 41 42 43 44 45 46 47 48 49 50
000
AXUS43 KLBF 240310
MISLBF


WESTERN AND NORTH CENTRAL NEBRASKA HOURLY WEATHER ROUNDUP
NATIONAL WEATHER SERVICE NORTH PLATTE NE
1000 PM CDT SAT MAY 23 2015

***STATIONS NOT REPORTING VARIABLES SUCH AS SKY/WEATHER OR
PRESSURE ARE PROVIDED BY THE NEBRASKA DEPARTMENT OF
ROADS...RAWS...AND APRS NETWORKS...AND ARE NOT UNDER
NATIONAL WEATHER SERVICE QUALITY CONTROL***

...OBSERVATIONS IN AND NEAR THE EASTERN PANHANDLE OF NEBRASKA...

CITY           SKY/WX    TMP DP  RH WIND       PRES   REMARKS
PINE RIDGE     CLOUDY    54  51  90 E15       29.99R
CHADRON        CLOUDY    54  52  93 NE10      29.96S
ALLIANCE       CLOUDY    54  52  93 E15       29.95S
SIDNEY         RAIN      50  49  96 E9        29.96R FOG
WHITECLAY        N/A     53  51  93 E6          N/A
BIG SPRINGS      N/A     56  55  95 E17         N/A
$$

...OBSERVATIONS IN NORTH CENTRAL NEBRASKA...

CITY           SKY/WX    TMP DP  RH WIND       PRES   REMARKS
VALENTINE      CLOUDY    55  54  96 E10       30.02F
THEDFORD       CLOUDY    55  54  95 E13G18    30.01S FOG
AINSWORTH      RAIN      55  55  98 E10       30.03F
O`NEILL        CLOUDY    57  56  95 E9        30.05S
ORD            LGT RAIN  56  55  97 E7        30.01F FOG
BROKEN BOW     LGT RAIN  57  55  93 E9        30.00F FOG
VALENTINE NWR    N/A     54  54  99 E9          N/A
SPRINGVIEW       N/A     55  53  94 E3          N/A
ROSE             N/A     56  55  99 NE6         N/A
NEWPORT          N/A     56  55  99 NE5         N/A
SARGENT          N/A     56  55  97 CALM        N/A
COMSTOCK         N/A     60  60  99 E6          N/A
EWING            N/A     57  55  93 NE3         N/A
$$

...OBSERVATIONS IN SOUTHWEST NEBRASKA AND FAR NORTHEAST COLORADO...

CITY           SKY/WX    TMP DP  RH WIND       PRES   REMARKS
WRAY           LGT RAIN  55  55 100 NE7       29.89F
IMPERIAL       CLOUDY    57  54  89 E17       29.92F
OGALLALA       CLOUDY    55  54  97 E17       29.94S
NORTH PLATTE   CLOUDY    56  54  93 E15       29.96F
MCCOOK         CLOUDY    58  55  90 E12       29.94R
LEXINGTON      LGT RAIN  58  57  95 E12       29.96F
PAXTON           N/A     56  54  94 E14         N/A
GOTHENBURG       N/A     56  53  91 E10         N/A
CALLAWAY         N/A     55  55  99 E9          N/A
$$

...NORTH PLATTE AREA...

CITY           SKY/WX    TMP DP  RH WIND       PRES   REMARKS
AIRPORT        CLOUDY    56  54  93 E15       29.96F
DOWNTOWN         N/A     55  53  95 E3          N/A
$$

...SOME WEATHER OBSERVATIONS FROM AROUND THE REGION...

CITY           SKY/WX    TMP DP  RH WIND       PRES   REMARKS
DENVER         RAIN      45  41  86 SW6       29.99R FOG
LARAMIE        LGT RAIN  41  38  89 N13G22    29.98R
CHEYENNE       CLOUDY    47  44  90 E8        29.97R
SCOTTSBLUFF    CLOUDY    55  54  96 SE5       29.92S
RAPID CITY     CLOUDY    54  53  97 E13       30.02S
PIERRE         CLOUDY    58  54  86 SE12      30.05R
WINNER         LGT RAIN  57  54  89 E9        30.05S
SIOUX FALLS    CLOUDY    62  54  74 SW3       30.08S
OMAHA          LGT RAIN  63  60  90 E5        30.04S
GRAND ISLAND   CLOUDY    59  57  93 E9G18     30.00F
KANSAS CITY    LGT RAIN  62  61  96 NE12      30.05F
WICHITA        LGT RAIN  61  58  90 E10       29.84R
HAYS           CLOUDY    59  52  77 E7        29.93R
LIBERAL        CLOUDY    61  55  82 SE15G23   29.88R
GOODLAND       CLOUDY    54  51  90 CALM      29.89R
$$



USA.gov is the U.S. government's official web portal to all federal, state and local government web resources and services.